This demonstration page uses our WeatherBlox Daily Observations layout. Learn more.

Left ArrowRight Arrow

38.80484, -77.04692

Hourly Observations for September 2, 2021

Temp ( °F °C ) Dew Point ( °F °C ) Humidity (%) Winds ( mph kmh ) Pressure ( in mb ) Visibility ( mi km ) Precip ( " mm )
12:26 am 00:26 Cloudy 68 20 60 15.6 76 76 NNW 16 26 29.72 1006 10 16 N/A
12:52 am 00:52 Cloudy 69 20.6 59 15 70 70 NNW 16 26 29.72 1007 10 16 N/A
1:52 am 01:52 Cloudy 69 20.6 58 14.4 68 68 NNW 15 24 29.74 1007 10 16 N/A
2:52 am 02:52 Mostly Cloudy 67 19.4 58 14.4 73 73 NNW 13 20 29.76 1008 10 16 N/A
3:52 am 03:52 Mostly Cloudy 66 18.9 58 14.4 75 75 NW 10 17 29.78 1009 10 16 N/A
4:52 am 04:52 Partly Cloudy 65 18.3 57 13.9 76 76 NW 10 17 29.81 1010 10 16 N/A
5:52 am 05:52 Mostly Clear 64 17.8 55 12.8 73 73 NW 9 15 29.84 1011 10 16 N/A
6:52 am 06:52 Partly Cloudy 63 17.2 53 11.7 70 70 NNW 13 20 29.87 1012 10 16 N/A
7:52 am 07:52 Mostly Sunny 64 17.8 52 11.1 65 65 NNW 13 20 29.90 1013 10 16 N/A
8:52 am 08:52 Mostly Sunny 67 19.4 52 11.1 59 59 NNW 12 19 29.91 1013 10 16 N/A
9:52 am 09:52 Sunny 70 21.1 52 11.1 53 53 N 17 28 29.93 1014 10 16 N/A
10:52 am 10:52 Sunny 73 22.8 52 11.1 48 48 N 16 26 29.95 1014 10 16 N/A
11:52 am 11:52 Sunny 75 23.9 51 10.6 43 43 N 13 20 29.96 1014 10 16 N/A
12:52 pm 12:52 Sunny 77 25 51 10.6 40 40 NW 13 20 29.95 1014 10 16 N/A
1:52 pm 13:52 Sunny 78 25.6 50 10 37 37 NW 13 20 29.95 1014 10 16 N/A
2:52 pm 14:52 Sunny 79 26.1 52 11.1 39 39 N 8 13 29.94 1014 10 16 N/A
3:52 pm 15:52 Sunny 79 26.1 51 10.6 38 38 NW 9 15 29.93 1014 10 16 N/A
4:52 pm 16:52 Sunny 79 26.1 49 9.4 35 35 NW 14 22 29.94 1014 10 16 N/A
5:52 pm 17:52 Sunny 78 25.6 47 8.3 33 33 NNW 14 22 29.95 1014 10 16 N/A
6:52 pm 18:52 Sunny 77 25 47 8.3 35 35 NNW 12 19 29.97 1015 10 16 N/A
7:52 pm 19:52 Clear 73 22.8 48 8.9 41 41 NNW 8 13 29.98 1015 10 16 N/A
8:52 pm 20:52 Clear 71 21.7 50 10 47 47 NNW 6 9 30.01 1016 10 16 N/A
9:52 pm 21:52 Clear 69 20.6 50 10 51 51 NNW 7 11 30.02 1017 10 16 N/A
10:52 pm 22:52 Clear 69 20.6 52 11.1 55 55 N N/A 30.03 1017 10 16 N/A
11:52 pm 23:52 Mostly Clear 68 20 54 12.2 61 61 N 5 7 30.04 1017 10 16 N/A

Powered by AerisWeather